Weather History for Ashtabula, OH

Change the Weather History Date:

Monday, October 7, 2013

  Actual Average (KYNG) Record (KYNG)
Temperature  
Mean Temperature 52 °F 54 °F  
Max Temperature 57 °F 64 °F 87 °F (1941)
Min Temperature 46 °F 44 °F 26 °F (1999)
Degree Days  
Heating Degree Days 14 12  
Month to date heating degree days 75  
Since 1 July heating degree days 258  
Cooling Degree Days 0 0  
Month to date cooling degree days 3  
Year to date cooling degree days 541  
Growing Degree Days 2 (Base 50)    
Moisture  
Dew Point 48 °F    
Average Humidity 82    
Maximum Humidity 94    
Minimum Humidity 55    
Precipitation  
Precipitation 0.79 in 0.09 in 1.08 in (1951)
Month to date precipitation 0.68  
Year to date precipitation 30.65  
Snow  
Snow 0.00 in 0.00 in - ()
Month to date snowfall 0.0  
Since 1 July snowfall 0.0  
Since 1 September snowfall 0.0  
Snow Depth -    
Sea Level Pressure  
Sea Level Pressure 29.86 in    
Wind  
Wind Speed 7 mph (WSW)    
Max Wind Speed 23 mph    
Max Gust Speed 32 mph    
Visibility 6 miles    
Events Rain    
T = Trace of Precipitation, MM = Missing Value Source: NWS Daily Summary

Daily Weather History Graph

Daily Weather History Graph

Search for Another Location

Airport:

Trip Planner

Search our weather history database for the weather conditions in past years. The results will help you decide how hot, cold, wet, or windy it might be!

Date:

Astronomy

Oct. 07, 2013 Rise Set
Actual Time 7:26 AM EDT 6:53 PM EDT
Civil Twilight 6:58 AM EDT 7:21 PM EDT
Nautical Twilight 6:26 AM EDT 7:53 PM EDT
Astronomical Twilight 5:53 AM EDT 8:26 PM EDT
Moon 10:17 AM EDT (10/7) 8:34 PM EDT (10/7)
Length of Visible Light 12h 23m
Length of Day
11h 27m
Waxing Crescent, 8% of the Moon is Illuminated
Oct 7
Waxing Crescent
Oct 11
First Quarter
Oct 18
Full
Oct 26
Last Quarter
Nov 3
New

Hourly Weather History & Observations

Time (EDT) Temp. Dew Point Humidity Pressure Visibility Wind Dir Wind Speed Gust Speed Precip Events Conditions
12:53 AM 57.0 °F 53.1 °F 87% 29.74 in 10.0 mi WNW 5.8 mph - 0.02 in Rain Light Rain
1:53 AM 57.0 °F 54.0 °F 89% 29.74 in 6.0 mi WSW 8.1 mph - 0.03 in Rain Light Rain
2:20 AM 57.2 °F 53.6 °F 88% 29.74 in 4.0 mi West 5.8 mph - 0.07 in Rain Rain
2:38 AM 55.4 °F 53.6 °F 94% 29.74 in 3.0 mi WSW 5.8 mph - 0.13 in Rain Rain
2:45 AM 55.4 °F 53.6 °F 94% 29.76 in 5.0 mi SW 8.1 mph - 0.15 in Rain Rain
2:53 AM 55.9 °F 53.1 °F 90% 29.73 in 4.0 mi SW 4.6 mph - 0.16 in Rain Rain
3:08 AM 55.4 °F 53.6 °F 94% 29.74 in 4.0 mi WSW 5.8 mph - 0.04 in Rain Heavy Rain
3:20 AM 55.4 °F 53.6 °F 94% 29.75 in 4.0 mi WSW 6.9 mph - 0.07 in Rain Rain
3:32 AM 55.4 °F 53.6 °F 94% 29.76 in 2.5 mi SW 6.9 mph - 0.12 in Rain Heavy Rain
3:43 AM 55.4 °F 53.6 °F 94% 29.75 in 2.0 mi WSW 8.1 mph - 0.18 in Rain Heavy Rain
3:53 AM 55.9 °F 53.1 °F 90% 29.73 in 2.5 mi WSW 5.8 mph - 0.23 in Rain Heavy Rain
4:01 AM 55.4 °F 53.6 °F 94% 29.76 in 5.0 mi WSW 11.5 mph - 0.01 in Rain Rain
4:21 AM 55.4 °F 51.8 °F 88% 29.75 in 5.0 mi WSW 5.8 mph - 0.08 in Rain Rain
4:29 AM 55.4 °F 53.6 °F 94% 29.75 in 5.0 mi West 5.8 mph - 0.09 in Rain Rain
4:36 AM 55.4 °F 51.8 °F 88% 29.74 in 5.0 mi Variable 3.5 mph - 0.11 in Rain Rain
4:43 AM 55.4 °F 53.6 °F 94% 29.74 in 5.0 mi SSW 4.6 mph - 0.12 in Rain Light Rain
4:53 AM 55.0 °F 52.0 °F 89% 29.73 in 5.0 mi SSW 6.9 mph - 0.14 in Rain Rain
4:57 AM 55.4 °F 51.8 °F 88% 29.74 in 5.0 mi SSW 9.2 mph - 0.01 in Rain Light Rain
5:05 AM 53.6 °F 51.8 °F 94% 29.74 in 7.0 mi SW 6.9 mph - 0.02 in Rain Rain
5:53 AM 54.0 °F 50.0 °F 86% 29.75 in 7.0 mi WSW 9.2 mph - 0.07 in Rain Light Rain
6:31 AM 53.6 °F 50.0 °F 88% 29.76 in 7.0 mi SW 8.1 mph - 0.03 in Rain Light Rain
6:53 AM 54.0 °F 50.0 °F 86% 29.76 in 10.0 mi SW 8.1 mph - 0.04 in Rain Light Rain
7:12 AM 53.6 °F 48.2 °F 82% 29.78 in 10.0 mi WSW 12.7 mph - 0.02 in Rain Light Rain
7:22 AM 53.6 °F 48.2 °F 82% 29.77 in 10.0 mi West 17.3 mph 23.0 mph 0.02 in Rain Light Rain
7:53 AM 51.1 °F 42.1 °F 71% 29.78 in 10.0 mi WSW 12.7 mph 20.7 mph 0.02 in   Overcast
8:53 AM 48.9 °F 39.9 °F 71% 29.80 in 10.0 mi WSW 11.5 mph - N/A   Scattered Clouds
9:53 AM 51.1 °F 39.9 °F 66% 29.83 in 10.0 mi SW 11.5 mph 19.6 mph N/A   Clear
10:53 AM 53.1 °F 42.1 °F 66% 29.84 in 10.0 mi WSW 13.8 mph 20.7 mph N/A   Partly Cloudy
11:53 AM 53.1 °F 41.0 °F 64% 29.85 in 10.0 mi WSW 15.0 mph - N/A   Mostly Cloudy
12:53 PM 55.0 °F 39.9 °F 57% 29.85 in 10.0 mi WSW 18.4 mph 24.2 mph N/A   Overcast
1:53 PM 55.0 °F 41.0 °F 59% 29.86 in 10.0 mi WSW 16.1 mph 31.1 mph N/A   Overcast
2:53 PM 55.9 °F 41.0 °F 57% 29.87 in 10.0 mi SW 23.0 mph 32.2 mph N/A   Mostly Cloudy
3:53 PM 55.9 °F 39.9 °F 55% 29.90 in 10.0 mi WSW 15.0 mph 21.9 mph N/A   Overcast
4:53 PM 55.9 °F 41.0 °F 57% 29.92 in 10.0 mi WSW 12.7 mph - N/A   Overcast
5:53 PM 55.9 °F 42.1 °F 60% 29.94 in 10.0 mi WSW 9.2 mph - N/A   Overcast
6:53 PM 54.0 °F 43.0 °F 66% 29.98 in 10.0 mi SW 10.4 mph - 0.00 in Rain Light Rain
7:53 PM 52.0 °F 46.0 °F 80% 30.00 in 4.0 mi SW 8.1 mph - 0.05 in Rain Light Rain
8:39 PM 51.8 °F 46.4 °F 82% 30.02 in 10.0 mi WSW 5.8 mph - 0.02 in   Overcast
8:53 PM 52.0 °F 46.0 °F 80% 30.04 in 10.0 mi WSW 4.6 mph - 0.02 in   Overcast
9:05 PM 51.8 °F 46.4 °F 82% 30.04 in 10.0 mi West 5.8 mph - 0.00 in   Overcast
9:53 PM 52.0 °F 46.9 °F 83% 30.08 in 10.0 mi Calm Calm - 0.01 in   Overcast
10:53 PM 48.9 °F 45.0 °F 86% 30.11 in 5.0 mi Calm Calm - N/A   Clear
11:01 PM 48.2 °F 44.6 °F 87% 30.10 in 1.8 mi Calm Calm - N/A   Clear
11:11 PM 48.2 °F 44.6 °F 87% 30.11 in 3.0 mi Calm Calm - N/A   Clear
11:20 PM 46.4 °F 44.6 °F 93% 30.11 in 1.8 mi Calm Calm - N/A   Clear
11:31 PM 48.2 °F 44.6 °F 87% 30.12 in 3.0 mi Calm Calm - N/A   Clear
11:49 PM 46.4 °F 44.6 °F 93% 30.12 in 1.8 mi Calm Calm - N/A   Partly Cloudy
11:53 PM 46.9 °F 44.1 °F 90% 30.13 in 0.8 mi Calm Calm - N/A   Clear